Weather in Andreyevskiy

Russia / Tyumen Oblast     57°03′59″N   65°48′14″E
temp.,
°C
wind,
m/s
gust,
m/s
humid.,
%
clouds,
%
prec.,
mm/h
press.,
hPa
HPBL,
m
17 may, tue
tue1723:00+11ese2594100 3.5 995126
02:00+10s1294100 0.8 99573
05:00+11w2597100 3.3 994291
08:00+12w3690100 0.7 995428
11:00+14w4674100 1.3 997932
14:00+14w4770100 0.8 999631
17:00+16w4458100 0.9 10001032
20:00+12sw3881100 0.4 1002261
18 may, wed
wed1823:00+11sw2686100 0.4 1003136
02:00+9ssw26894 0.0 1004111
05:00+9ssw24865 0.0 100486
08:00+14s3665100 0.0 1004373
11:00+17ssw4653100 0.0 10041239
14:00+20ssw5640100 0.1 10022431
17:00+19sw46456 0.1 10021997
20:00+15sw26615 0.0 1001205
19 may, thu
thu1923:00+14sse25665 0.0 1000119
02:00+10ssw1274100 0.0 99945
05:00+10wsw3884100 0.1 999311
08:00+11wsw4777100 0.1 999613
11:00+12w4777100 1.9 999984
14:00+16w5951100 0.3 10001979
17:00+15w685654 0.9 10021838
20:00+10w6116953 0.2 10041025
20 may, fri
fri2023:00+8wsw411675 0.2 1006529
02:00+7sw31075100 0.0 1006318
05:00+8ssw398083 0.1 1006470
08:00+10wsw4768100 0.0 1006899
11:00+11wsw4658100 0.1 10061507
14:00+14w3540100 0.0 10051881
17:00+14sw3341100 0.0 10041808
20:00+11sw2357100 0.0 1002137
21 may, sat
sat2123:00+9w2260100 0.0 100254
02:00+8nw2366100 0.0 100055
05:00+7nnw1265100 0.0 100037
08:00+11nnw235251 0.0 1000455
11:00+14n3339100 0.0 10001735
14:00+15n3233100 0.0 9992335
17:00+16n3332100 0.0 9982254
20:00+13n2546100 0.0 998294